Hourly Data Report for December 15, 2010

IQALUIT CLIMATE
NUNAVUT

63°44'50.000" N
68°32'40.000" W
33.50 m
2402592
71321
XFB

Download Data

Hourly Data (December 2010)
Hourly Data Report for December 15, 2010
TIME
LST
Temp Definition
°C
Dew Point Definition
°C
Rel Hum Definition
%
Precip. Amount Definition
mm

Wind Dir Definition
10's deg

Wind Spd Definition
km/h
Visibility Definition
km
Stn Press Definition
kPa
Hmdx Definition


Wind Chill Definition


Weather Definition


00:00 -8.3 -9.7 90   10 22   102.98   -16 LegendNANA
01:00 -7.9 -8.8 93   13 17   102.95   -15 LegendNANA
02:00 -8.0 -8.4 97   10 9   102.94   -13 LegendNANA
03:00 -7.2 -7.7 96   11 19   102.90   -14 LegendNANA
04:00 -6.2 -7.1 93   10 24   102.82   -14 LegendNANA
05:00 -5.2 -6.3 92   10 28   102.80   -13 LegendNANA
06:00 -4.2 -5.9 88   11 20   102.84   -11 LegendNANA
07:00 -3.6 -5.7 85   10 11   102.82   -8 LegendNANA
08:00 -2.9 -5.4 83   9 15   102.80   -8 LegendNANA
09:00 -2.4 -5.0 82   9 17   102.85   -8 LegendNANA
10:00 -1.7 -4.5 81   12 32   102.82   -9 LegendNANA
11:00 -1.2 -4.1 81   10 20   102.83   -7 LegendNANA
12:00 -0.5 -4.0 77   11 19   102.87   -6 LegendNANA
13:00 -2.5 -5.2 82   8 13   102.90   -7 LegendNANA
14:00 -2.1 -4.7 82   10 19   102.99   -8 LegendNANA
15:00 -1.8 -3.5 88   13 22   103.04   -8 LegendNANA
16:00 -0.8 -2.3 90   13 30   103.07   -8 LegendNANA
17:00 -1.0 -2.3 91   9 15   103.12   -6 LegendNANA
18:00 -0.2 -1.3 92   12 26   103.18   -6 LegendNANA
19:00 0.1 0.1 100   15 41   103.19     LegendNANA
20:00 0.1 -0.1 99   13 33   103.27     LegendNANA
21:00 0.0 -0.6 96   13 24   103.31   -6 LegendNANA
22:00 -0.4 -1.0 96   14 32   103.34   -7 LegendNANA
23:00 -0.1 -0.7 96   14 39   103.33   -7 LegendNANA

Notes on Data Quality.

Legend

  • E = Estimated
  • M = Missing
  • NA = Not Available*
  • [empty] = Indicates an unobserved value
Date modified: